Weather observations for the past three days for
Princeton
Imperial (Metric)
Date Time (cdt) Wind (mph) Vis. (mi.) Weather Sky Cond. Temperature (ºF) Relative Humidity Wind Chill (°F) Heat Index (°F) Pressure Precipitation (in)
Air Dwpt 6 hour altimeter (in) sea level (mb) 1 hr 3 hr 6 hr
Max. Min.
16 17:45 SW 6 10.00 Mostly Cloudy SCT037 SCT049 BKN060 84.2 69.8 62% 88 29.63 0.0
16 17:23 SW 9 10.00 Mostly Cloudy SCT039 BKN050 86 71.6 62% 92 29.62 0.0
16 17:04 SW 8 10.00 Partly Cloudy SCT041 SCT048 86 71.6 62% 92 29.61 0.0
16 16:44 SW 9 G 16 10.00 Partly Cloudy SCT055 87.8 71.6 59% 94 29.6 0.0
16 16:24 SW 9 G 18 10.00 Partly Cloudy SCT037 87.8 71.6 59% 94 29.6 0.0
16 16:06 SW 10 10.00 Partly Cloudy SCT038 SCT046 86 71.6 62% 92 29.6 0.0
16 15:45 S 7 10.00 Partly Cloudy SCT028 SCT055 86 73.4 66% 93 29.6 0.0
16 15:25 SW 8 10.00 Partly Cloudy SCT028 84.2 73.4 70% 91 29.6 0.0
16 15:06 S 10 10.00 Partly Cloudy SCT028 SCT050 84.2 73.4 70% 91 29.6 0.0
16 14:46 SW 7 10.00 Mostly Cloudy SCT046 BKN050 82.4 73.4 74% 88 29.61 0.0
16 14:26 SW 8 10.00 Mostly Cloudy SCT031 BKN040 BKN047 80.6 71.6 74% 85 29.61 0.0
16 14:07 SW 9 10.00 Overcast SCT028 OVC038 82.4 71.6 70% 87 29.61 0.0
16 13:45 SW 12 G 20 10.00 Overcast BKN028 OVC033 82.4 71.6 70% 87 29.6 0.0
16 13:07 S 16 G 22 10.00 Mostly Cloudy BKN030 82.4 71.6 70% 87 29.59 0.0
16 12:45 S 10 10.00 Mostly Cloudy BKN027 80.6 71.6 74% 85 29.6 0.0
16 12:25 S 13 10.00 Overcast OVC025 78.8 71.6 79% 82 29.6 0.0
16 12:05 S 10 G 16 10.00 Overcast OVC023 78.8 69.8 74% 81 29.6 0.0
16 11:33 S 14 10.00 Mostly Cloudy BKN020 BKN024 78.8 69.8 74% 81 29.06 0.0
16 11:14 S 8 G 17 10.00 Mostly Cloudy BKN021 78.8 69.8 74% 81 29.61 0.0
16 10:43 S 9 10.00 Overcast OVC017 75.2 69.8 83% 75 29.63 0.0
16 10:25 S 7 10.00 Overcast OVC017 75.2 69.8 83% 75 29.64 0.0
16 10:05 S 8 7.00 Overcast OVC015 73.4 69.8 89% 29.63 0.0
16 09:45 S 8 10.00 Overcast OVC015 73.4 68 83% 29.65 0.0
16 09:25 S 9 10.00 Overcast OVC015 71.6 68 88% 29.63 0.0
16 09:05 S 9 G 18 10.00 Overcast OVC015 71.6 68 88% 29.64 0.0
16 08:47 S 8 10.00 Overcast OVC013 71.6 66.2 83% 29.64 0.0
16 08:27 S 14 G 18 10.00 Overcast BKN011 OVC018 69.8 66.2 88% 29.63 0.0
16 08:05 S 13 10.00 Mostly Cloudy BKN011 69.8 33.8 27% 29.61 0.0
16 07:45 S 9 10.00 Fair CLR 69.8 66.2 88% 29.63 0.0
16 07:25 SE 8 10.00 Partly Cloudy SCT007 68 64.4 88% 29.62 0.0
16 07:05 SE 7 10.00 Mostly Cloudy SCT007 BKN040 66.2 64.4 94% 29.63 0.0
16 06:45 SE 7 10.00 Mostly Cloudy SCT007 BKN040 66.2 64.4 94% 29.64 0.0
16 06:27 SE 7 10.00 Mostly Cloudy BKN007 66.2 64.4 94% 29.65 0.0
16 06:06 SE 6 10.00 Mostly Cloudy SCT009 BKN044 BKN061 66.2 64.4 94% 29.65 0.0
16 05:47 SE 6 10.00 Overcast SCT009 BKN044 OVC060 66.2 64.4 94% 29.65 0.0
16 05:27 SE 7 10.00 Overcast OVC009 66.2 66.2 100% 29.65 0.0
16 05:07 SE 9 10.00 Overcast BKN007 BKN012 OVC049 66.2 64.4 94% 29.65 0.0
16 04:47 S 8 10.00 Overcast BKN007 OVC047 66.2 64.4 94% 29.65 0.0
16 04:27 S 9 10.00 Overcast OVC005 66.2 64.4 94% 29.65 0.0
16 03:50 SE 7 10.00 Overcast BKN007 OVC047 64.4 62.6 94% 29.64 0.0
16 03:15 SE 7 10.00 Overcast OVC007 64.4 64.4 100% 29.66 0.0
16 02:45 SE 7 10.00 Overcast OVC007 64.4 62.6 94% 29.68 0.0
16 02:27 S 8 10.00 Overcast OVC009 64.4 62.6 94% 29.69 0.0
16 02:07 S 12 10.00 Overcast OVC009 64.4 62.6 94% 29.07 0.0
16 01:47 S 9 10.00 Light Rain OVC009 64.4 62.6 94% 29.72 0.0
16 01:15 SE 10 10.00 Rain OVC011 64.4 62.6 94% 29.71 0.0
16 00:47 SE 7 10.00 Rain BKN013 BKN032 OVC043 62.6 60.8 94% 29.72 0.0
16 00:27 SE 6 10.00 Light Rain SCT013 BKN042 OVC055 62.6 60.8 94% 29.74 0.0
16 00:06 SE 7 10.00 Light Drizzle BKN026 OVC034 64.4 60.8 88% 29.75 0.0
15 23:47 SE 9 10.00 Overcast SCT003 OVC038 64.4 60.8 88% 29.76 0.0
15 23:30 SE 9 10.00 Overcast OVC042 62.6 60.8 94% 29.76 0.0
15 23:06 SE 8 10.00 Overcast OVC046 62.6 60.8 94% 29.76 0.0
15 22:47 SE 7 10.00 Thunderstorm in Vicinity BKN048 62.6 60.8 94% 29.76 0.0
15 22:27 SE 8 G 16 10.00 Overcast SCT008 BKN050 OVC075 62.6 60.8 94% 29.77 0.0
15 22:07 SE 9 10.00 Overcast SCT009 BKN050 OVC075 62.6 60.8 94% 29.97 0.0
15 21:46 SE 9 G 17 10.00 Overcast SCT007 BKN050 OVC070 62.6 60.8 94% 29.78 0.0
15 21:26 E 7 10.00 Light Drizzle SCT007 BKN048 OVC055 62.6 60.8 94% 29.78 0.0
15 20:47 SE 9 10.00 Light Rain OVC009 62.6 60.8 94% 29.8 0.0
15 20:27 SE 8 10.00 Light Rain BKN009 OVC012 62.6 60.8 94% 29.8 0.0
15 20:06 SE 7 10.00 Light Rain BKN009 OVC049 62.6 60.8 94% 29.81 0.0
15 19:46 SE 10 G 16 10.00 Light Rain SCT008 BKN011 OVC049 62.6 60.8 94% 29.82 0.0
15 19:25 SE 12 10.00 Light Rain BKN006 BKN011 OVC049 62.6 60.8 94% 29.82 0.0
15 19:07 SE 9 G 16 10.00 Light Rain BKN006 OVC012 62.6 60.8 94% 29.84 0.0
15 18:50 SE 8 10.00 Rain BKN006 BKN014 OVC049 62.6 60.8 94% 29.84 0.0
15 18:23 SE 8 10.00 Heavy Rain SCT008 BKN016 OVC030 62.6 60.8 94% 29.86 0.0
15 17:47 SE 12 7.00 Heavy Rain BKN008 BKN014 OVC020 62.6 60.8 94% 29.88 0.0
15 17:27 SE 10 G 18 10.00 Rain BKN008 OVC013 62.6 60.8 94% 29.88 0.0
15 17:07 SE 10 G 18 10.00 Rain SCT008 BKN017 OVC032 62.6 60.8 94% 29.88 0.0
15 16:45 SE 13 G 17 7.00 Heavy Rain SCT009 BKN030 OVC034 62.6 60.8 94% 29.89 0.0
15 16:26 SE 12 G 17 7.00 Heavy Rain SCT007 BKN014 OVC036 62.6 60.8 94% 29.89 0.0
15 16:07 SE 9 G 13 7.00 Rain SCT007 OVC014 64.4 60.8 88% 29.9 0.0
15 15:46 SE 12 G 17 7.00 Rain SCT008 BKN016 OVC023 64.4 62.6 94% 29.91 0.0
15 15:27 SE 12 G 20 7.00 Rain SCT015 BKN021 OVC026 64.4 60.8 88% 29.91 0.0
15 14:45 SE 12 10.00 Light Rain SCT075 66.2 62.6 88% 29.91 0.0
15 14:26 SE 9 10.00 Light Rain CLR 66.2 62.6 88% 29.92 0.0
15 14:07 SE 9 10.00 Light Rain CLR 68 62.6 83% 29.92 0.0
15 13:35 SE 8 10.00 Light Rain CLR 68 60.8 78% 29.93 0.0
15 13:15 SE 9 10.00 Light Rain CLR 68 60.8 78% 29.94 0.0
15 12:47 SE 8 10.00 Light Rain CLR 69.8 59 69% 29.94 0.0
15 12:31 SE 9 10.00 Light Rain CLR 73.4 57.2 57% 29.94 0.0
15 11:53 S 13 10.00 Fair CLR 73.4 59 61% 29.95 0.0
15 11:26 SE 9 10.00 Fair CLR 71.6 57.2 61% 29.95 0.0
15 11:06 SE 9 10.00 Fair CLR 71.6 57.2 61% 29.95 0.0
15 10:46 SE 7 10.00 Fair CLR 71.6 57.2 61% 29.96 0.0
15 10:24 SE 8 10.00 Fair CLR 71.6 57.2 61% 29.97 0.0
15 10:06 SE 8 10.00 Fair CLR 69.8 57.2 64% 29.98 0.0
15 09:46 SE 7 10.00 Partly Cloudy SCT120 68 57.2 69% 29.98 0.0
15 09:24 SE 7 10.00 Partly Cloudy SCT011 68 57.2 69% 29.99 0.0
15 09:04 SE 7 10.00 Mostly Cloudy BKN110 68 57.2 69% 30.01 0.0
15 08:44 SE 6 10.00 Partly Cloudy SCT011 66.2 57.2 73% 30.01 0.0
15 08:24 SE 5 10.00 Partly Cloudy SCT110 66.2 55.4 68% 30 0.0
15 08:05 SE 7 10.00 Overcast OVC110 66.2 55.4 68% 30.01 0.0
15 07:44 SE 6 10.00 Mostly Cloudy BKN110 66.2 55.4 68% 30.01 0.0
15 07:23 SE 6 10.00 Fair CLR 66.2 55.4 68% 30.01 0.0
15 07:03 E 5 10.00 Fair CLR 66.2 55.4 68% 30 0.0
15 06:43 SE 6 10.00 Fair CLR 66.2 55.4 68% 30.01 0.0
15 06:23 SE 7 10.00 Fair CLR 66.2 53.6 64% 30 0.0
15 06:05 SE 8 10.00 Partly Cloudy SCT110 66.2 53.6 64% 30.01 0.0
15 05:44 SE 6 10.00 Overcast OVC110 66.2 53.6 64% 30.01 0.0
15 05:24 S 6 10.00 Overcast OVC100 66.2 55.4 68% 30.01 0.0
15 05:05 S 6 10.00 Mostly Cloudy BKN110 66.2 55.4 68% 30.02 0.0
15 04:24 S 6 10.00 Partly Cloudy SCT110 64.4 55.4 73% 30.03 0.0
15 03:43 Calm 10.00 Fair CLR 62.6 55.4 77% 30.03 0.0
15 03:24 S 3 10.00 Fair CLR 62.6 55.4 77% 30.03 0.0
15 03:03 Calm 10.00 Fair CLR 62.6 55.4 77% 30.02 0.0
15 02:44 Calm 10.00 Fair CLR 62.6 55.4 77% 30.03 0.0
15 02:24 SE 3 10.00 Fair CLR 62.6 55.4 77% 30.02 0.0
15 01:51 E 3 10.00 Fair CLR 64.4 55.4 73% 30.02 0.0
15 01:23 Calm 10.00 Fair CLR 62.6 55.4 77% 30.04 0.0
15 01:04 Calm 10.00 Fair CLR 62.6 55.4 77% 30.04 0.0
15 00:45 SE 3 10.00 Fair CLR 64.4 55.4 73% 30.04 0.0
15 00:23 Calm 10.00 Fair CLR 62.6 55.4 77% 30.05 0.0
15 00:07 Calm 10.00 Fair CLR 64.4 55.4 73% 30.05 0.0
14 23:45 SE 3 10.00 Fair CLR 62.6 55.4 77% 30.05 0.0
14 23:25 SE 3 10.00 Fair CLR 64.4 55.4 73% 30.05 0.0
14 21:44 Calm 10.00 Fair CLR 69.8 57.2 64% 30.04 0.0
14 21:24 Calm 10.00 Fair CLR 68 57.2 69% 30.05 0.0
14 21:04 Calm 10.00 Fair CLR 69.8 57.2 64% 30.04 0.0
14 20:26 Calm 10.00 Fair CLR 73.4 55.4 53% 30.05 0.0
14 19:43 Calm 10.00 Fair CLR 75.2 53.6 47% 78 30.05 0.0
14 19:23 Calm 10.00 Fair CLR 77 51.8 42% 78 30 0.0
14 19:04 SW 3 10.00 Fair CLR 78.8 51.8 39% 79 30.04 0.0
14 18:44 W 3 10.00 Fair CLR 78.8 51.8 39% 79 30.03 0.0
14 18:28 S 6 10.00 Fair CLR 78.8 51.8 39% 79 30.04 0.0
14 18:09 NW 5 10.00 Fair CLR 78.8 50 37% 79 30.04 0.0
14 17:45 Calm 10.00 Fair CLR 78.8 48.2 34% 79 30.05 0.0
14 17:24 NW 3 10.00 Partly Cloudy SCT060 78.8 51.8 39% 79 30.05 0.0
14 17:03 W 5 10.00 Overcast OVC060 80.6 51.8 37% 80 30.05 0.0
14 16:44 S 3 10.00 Mostly Cloudy BKN060 78.8 51.8 39% 79 30.05 0.0
14 16:23 Calm 10.00 Partly Cloudy SCT060 78.8 51.8 39% 79 30.06 0.0
14 14:44 W 6 10.00 Partly Cloudy SCT060 78.8 51.8 39% 79 30.08 0.0
14 14:25 NW 7 10.00 Mostly Cloudy BKN060 75.2 51.8 44% 78 30.08 0.0
14 13:52 NE 3 10.00 Partly Cloudy SCT005 78.8 51.8 39% 79 30.08 0.0
14 13:11 NW 3 10.00 Partly Cloudy SCT050 78.8 51.8 39% 79 30.09 0.0
14 12:42 NW 7 10.00 Partly Cloudy SCT005 77 51.8 42% 78 30.09 0.0
14 12:23 NW 7 10.00 Partly Cloudy SCT050 SCT055 75.2 51.8 44% 78 30.09 0.0
14 11:49 N 6 10.00 Fair CLR 75.2 51.8 44% 78 30.1 0.0
14 11:24 W 6 10.00 Partly Cloudy SCT047 73.4 53.6 50% 30.1 0.0
14 11:06 NW 6 10.00 Fair CLR 73.4 51.8 47% 30.1 0.0
14 10:44 NW 3 10.00 Fair CLR 73.4 51.8 47% 30.09 0.0
14 10:25 NW 3 10.00 Fair CLR 71.6 53.6 53% 30.09 0.0
14 10:02 N 7 10.00 Fair CLR 71.6 53.6 53% 30.09 0.0
14 09:44 N 6 10.00 Fair CLR 71.6 55.4 57% 30.09 0.0
14 09:28 N 5 10.00 Fair CLR 69.8 55.4 60% 30.09 0.0
14 08:48 N 3 10.00 Fair CLR 66.2 55.4 68% 30.1 0.0
14 08:25 N 5 10.00 Fair CLR 66.2 55.4 68% 30.09 0.0
14 08:04 Calm 10.00 Fair CLR 64.4 55.4 73% 30.1 0.0
14 07:44 NW 3 10.00 Fair CLR 62.6 55.4 77% 30.09 0.0
14 07:25 N 5 10.00 Fair CLR 60.8 55.4 83% 30.07 0.0
14 07:03 Calm 10.00 Fair CLR 59 55.4 88% 30.08 0.0
14 06:43 Calm 10.00 Fair CLR 57.2 55.4 94% 30.07 0.0
14 04:32 Calm 10.00 Fair CLR 53.6 51.8 94% 30.03 0.0
14 03:45 Calm 7.00 Fair CLR 55.4 55.4 100% 30.02 0.0
14 03:25 Calm 10.00 Fair CLR 55.4 50 82% 30.01 0.0
14 03:05 Calm 10.00 Fair CLR 57.2 51.8 82% 30 0.0
14 02:34 NW 3 10.00 Fair CLR 59 50 72% 30 0.0
14 02:10 NW 3 10.00 Fair CLR 60.8 50 68% 29.99 0.0
14 01:43 NW 6 10.00 Fair CLR 60.8 50 68% 29.99 0.0
14 01:23 NW 5 10.00 Fair CLR 60.8 50 68% 29.98 0.0
14 01:03 NW 5 10.00 Fair CLR 62.6 50 64% 29.98 0.0
14 00:45 NW 3 10.00 Fair CLR 60.8 51.8 72% 29.98 0.0
14 00:23 NW 3 10.00 Fair CLR 62.6 51.8 68% 29.97 0.0
14 00:05 Calm 10.00 Fair CLR 62.6 51.8 68% 29.97 0.0
13 23:25 NW 3 10.00 Fair CLR 64.4 51.8 64% 29.96 0.0
13 23:05 NW 3 10.00 Fair CLR 66.2 48.2 52% 29.95 0.0
13 22:28 NW 5 10.00 Fair CLR 68 48.2 49% 29.94 0.0
13 22:05 NW 5 10.00 Fair CLR 69.8 48.2 46% 29.93 0.0
13 21:45 NW 6 10.00 Fair CLR 71.6 48.2 44% 29.92 0.0
13 21:25 N 8 10.00 Fair CLR 73.4 48.2 41% 29.91 0.0
13 21:05 NW 8 10.00 Fair CLR 73.4 46.4 38% 29.9 0.0
13 20:43 NW 8 10.00 Fair CLR 73.4 46.4 38% 29.88 0.0
13 19:44 W 8 10.00 Fair CLR 80.6 44.6 28% 79 29.87 0.0
13 19:25 W 8 10.00 Fair CLR 80.6 44.6 28% 79 29.87 0.0
13 19:04 W 7 G 17 10.00 Fair CLR 80.6 44.6 28% 79 29.87 0.0
13 18:44 W 12 G 20 10.00 Fair CLR 80.6 42.8 26% 79 29.87 0.0
13 18:24 W 9 10.00 Fair CLR 82.4 44.6 26% 81 29.87 0.0
13 18:05 W 9 10.00 Fair CLR 80.6 44.6 28% 79 29.87 0.0
Date Time (cdt) Wind (mph) Vis. (mi.) Weather Sky Cond. Air Dwpt Max. Min. Relative Humidity Wind Chill (°F) Heat Index (°F) altimeter (in) sea level (mb) 1 hr 3 hr 6 hr
6 hour
Temperature (ºF) Pressure Precipitation (in)